Voltar ao catálogo

CZ-2D R/B

AtivoSSO
NORAD 58074·ROCKET BODY·🇨🇳 China

Lançado Oct 15, 2023 de Jiuquan Satellite Launch Center

Loading…

Próximas Passagens (próximas 24 horas)

TLE

AtualizadoSource: Space-Track

Época: Sep 14, 2026, 11:30 UTC

1 58074U 23159B   26257.47943408  .00000010  00000-0  19323-4 0  9998
2 58074  98.4586 267.6619 0099482  26.9826 333.6480 14.29307933152161

Acompanhe CZ-2D R/B em tempo real com AllMySat

Download on the App Store